Simultaneous Nadir Overpasses (SNOs) Predictions

Prediction of SNOs between METOP-B and NOAA-19 Satellite Orbit:

Table of predicted SNOs for the next 14.0 days since TLE Epoch: 2/2/2018
Index Date (METOP-B) Time (METOP-B) Lat,Lon (METOP-B) SZA (METOP-B ) Date (NOAA-19) Time (NOAA-19) Lat,Lon (NOAA-19) SZA (NOAA-19 ) Distance(km) Time Diff (sec)
1 02/07/2018 06:12:45 -77.98, -85.10 86.75 02/07/2018 06:11:39 -77.98, -85.08 86.75 0.86 66
2 02/07/2018 07:03:25 77.98, 82.22 93.24 02/07/2018 07:02:35 77.98, 82.19 93.24 0.96 50
3 02/07/2018 07:54:07 -77.96,-110.53 86.79 02/07/2018 07:53:40 -77.97,-110.52 86.78 1.34 27
4 02/07/2018 08:44:47 77.96, 56.80 93.20 02/07/2018 08:44:36 77.97, 56.76 93.21 1.56 11
5 02/07/2018 09:35:29 -77.94,-135.96 86.83 02/07/2018 09:35:41 -77.96,-135.96 86.81 1.94 12
6 02/07/2018 10:26:09 77.94, 31.37 93.16 02/07/2018 10:26:37 77.96, 31.32 93.18 2.20 28
7 02/07/2018 11:16:51 -77.93,-161.39 86.87 02/07/2018 11:17:42 -77.95,-161.39 86.85 2.59 51
8 02/07/2018 12:07:31 77.93, 5.94 93.12 02/07/2018 12:08:38 77.95, 5.88 93.15 2.85 67




NCC Satellite Simultaneous Nadir Overpasses (SNOs) Prediction Service
